Meridianville, AL

1:51 AM CST on February 25, 2017 (GMT -0600)
Huntsville Madison

Weather History for KMDQ - December, 2012

Change the Weather History Date:

Thursday, December 6, 2012

  Actual Average (KHSV) Record (KHSV)
Temperature  
Mean Temperature 57 °F -  
Max Temperature 68 °F 53 °F 76 °F (1998)
Min Temperature 46 °F 33 °F 12 °F (1937)
Degree Days  
Heating Degree Days 8    
Growing Degree Days 7 (Base 50)    
Moisture  
Dew Point 44 °F    
Average Humidity 61    
Maximum Humidity 87    
Minimum Humidity 46    
Precipitation  
Precipitation 0.00 in - - ()
Sea Level Pressure  
Sea Level Pressure 30.07 in    
Wind  
Wind Speed 4 mph (SE)    
Max Wind Speed 13 mph    
Max Gust Speed 20 mph    
Visibility 10 miles    
Events      
Averages and records for this station are not official NWS values.
T = Trace of Precipitation, MM = Missing Value Source: NWS Daily Summary

Daily Weather History Graph

Daily Weather History Graph

Search for Another Location

Airport or City:

Trip Planner

Search our weather history database for the weather conditions in past years. The results will help you decide how hot, cold, wet, or windy it might be!

Date:

Astronomy

Dec. 06, 2012 Rise Set
Actual Time 6:40 AM CST 4:34 PM CST
Civil Twilight 6:12 AM CST 5:02 PM CST
Nautical Twilight 5:40 AM CST 5:34 PM CST
Astronomical Twilight 5:10 AM CST 6:04 PM CST
Moon No Moon Rise 11:46 AM CST (12/6)
Length of Visible Light 10h 50m
Length of Day
9h 54m
Waning Gibbous, 49% of the Moon is Illuminated
Dec 6
Waning Gibbous
Dec 13
New
Dec 19
First Quarter
Dec 28
Full
Jan 4
Last Quarter

Hourly Weather History & Observations

Time (CST) Temp. Dew Point Humidity Pressure Visibility Wind Dir Wind Speed Gust Speed Precip Events Conditions
12:15 AM 46.4 °F 41.0 °F 81% 30.11 in 10.0 mi Calm Calm - N/A   Overcast
12:35 AM 46.4 °F 41.0 °F 81% 30.10 in 10.0 mi Calm Calm - N/A   Overcast
12:55 AM 46.4 °F 42.8 °F 87% 30.11 in 10.0 mi Calm Calm - N/A   Overcast
1:15 AM 46.4 °F 42.8 °F 87% 30.11 in 10.0 mi Calm Calm - N/A   Overcast
1:35 AM 48.2 °F 42.8 °F 82% 30.10 in 10.0 mi SE 4.6 mph - N/A   Overcast
1:55 AM 50.0 °F 41.0 °F 71% 30.10 in 10.0 mi Calm Calm - N/A   Overcast
2:15 AM 46.4 °F 42.8 °F 87% 30.10 in 10.0 mi Calm Calm - N/A   Mostly Cloudy
2:35 AM 46.4 °F 42.8 °F 87% 30.10 in 10.0 mi Calm Calm - N/A   Overcast
2:55 AM 46.4 °F 42.8 °F 87% 30.09 in 10.0 mi Calm Calm - N/A   Overcast
3:15 AM 46.4 °F 42.8 °F 87% 30.09 in 10.0 mi Calm Calm - N/A   Overcast
3:35 AM 48.2 °F 42.8 °F 82% 30.09 in 10.0 mi Calm Calm - N/A   Overcast
3:55 AM 50.0 °F 42.8 °F 76% 30.10 in 10.0 mi Calm Calm - N/A   Overcast
4:15 AM 51.8 °F 41.0 °F 67% 30.10 in 10.0 mi Calm Calm - N/A   Overcast
4:35 AM 51.8 °F 37.4 °F 58% 30.10 in 10.0 mi Calm Calm - N/A   Overcast
4:55 AM 50.0 °F 42.8 °F 76% 30.10 in 10.0 mi Calm Calm - N/A   Overcast
5:15 AM 50.0 °F 42.8 °F 76% 30.10 in 10.0 mi Calm Calm - N/A   Overcast
5:35 AM 50.0 °F 42.8 °F 76% 30.11 in 10.0 mi Calm Calm - N/A   Overcast
5:55 AM 50.0 °F 44.6 °F 82% 30.11 in 10.0 mi Calm Calm - N/A   Overcast
6:15 AM 50.0 °F 42.8 °F 76% 30.11 in 10.0 mi Calm Calm - N/A   Overcast
6:35 AM 50.0 °F 42.8 °F 76% 30.11 in 10.0 mi Calm Calm - N/A   Overcast
6:55 AM 51.8 °F 42.8 °F 71% 30.11 in 10.0 mi SSE 3.5 mph - N/A   Overcast
7:15 AM 55.4 °F 44.6 °F 67% 30.11 in 10.0 mi SSE 6.9 mph - N/A   Overcast
7:35 AM 55.4 °F 46.4 °F 72% 30.11 in 10.0 mi SSE 8.1 mph - N/A   Overcast
7:55 AM 55.4 °F 46.4 °F 72% 30.11 in 10.0 mi SE 9.2 mph 16.1 mph N/A   Overcast
8:15 AM 59.0 °F 46.4 °F 63% 30.11 in 10.0 mi SSE 10.4 mph 16.1 mph N/A   Overcast
8:35 AM 59.0 °F 48.2 °F 67% 30.11 in 10.0 mi SSE 12.7 mph 16.1 mph N/A   Overcast
8:55 AM 60.8 °F 48.2 °F 63% 30.11 in 10.0 mi SSE 9.2 mph - N/A   Overcast
9:15 AM 60.8 °F 48.2 °F 63% 30.11 in 10.0 mi SSE 11.5 mph 18.4 mph N/A   Overcast
9:35 AM 60.8 °F 48.2 °F 63% 30.11 in 10.0 mi SSE 11.5 mph 17.3 mph N/A   Overcast
9:55 AM 62.6 °F 46.4 °F 55% 30.11 in 10.0 mi SE 11.5 mph - N/A   Overcast
10:15 AM 62.6 °F 46.4 °F 55% 30.10 in 10.0 mi SE 11.5 mph - N/A   Mostly Cloudy
10:35 AM 62.6 °F 46.4 °F 55% 30.10 in 10.0 mi SSE 10.4 mph - N/A   Mostly Cloudy
10:55 AM 64.4 °F 46.4 °F 52% 30.10 in 10.0 mi SSE 11.5 mph - N/A   Overcast
11:15 AM 64.4 °F 46.4 °F 52% 30.09 in 10.0 mi SSE 11.5 mph 16.1 mph N/A   Overcast
11:35 AM 64.4 °F 46.4 °F 52% 30.08 in 10.0 mi SSE 8.1 mph - N/A   Overcast
11:55 AM 64.4 °F 46.4 °F 52% 30.07 in 10.0 mi South 9.2 mph - N/A   Overcast
12:15 PM 64.4 °F 46.4 °F 52% 30.06 in 10.0 mi SSE 8.1 mph - N/A   Overcast
12:35 PM 66.2 °F 46.4 °F 49% 30.06 in 10.0 mi SSE 6.9 mph - N/A   Overcast
12:55 PM 68.0 °F 46.4 °F 46% 30.05 in 10.0 mi SSE 8.1 mph - N/A   Mostly Cloudy
1:15 PM 68.0 °F 46.4 °F 46% 30.04 in 10.0 mi SSE 10.4 mph - N/A   Mostly Cloudy
1:35 PM 68.0 °F 46.4 °F 46% 30.04 in 10.0 mi South 9.2 mph - N/A   Scattered Clouds
1:55 PM 66.2 °F 46.4 °F 49% 30.03 in 10.0 mi SSE 8.1 mph - N/A   Scattered Clouds
2:15 PM 68.0 °F 46.4 °F 46% 30.02 in 10.0 mi SSE 8.1 mph - N/A   Scattered Clouds
2:35 PM 66.2 °F 46.4 °F 49% 30.03 in 10.0 mi SE 9.2 mph - N/A   Mostly Cloudy
2:55 PM 66.2 °F 46.4 °F 49% 30.03 in 10.0 mi SE 8.1 mph - N/A   Overcast
3:15 PM 66.2 °F 46.4 °F 49% 30.02 in 10.0 mi SSE 9.2 mph - N/A   Overcast
3:35 PM 64.4 °F 46.4 °F 52% 30.02 in 10.0 mi SE 6.9 mph - N/A   Scattered Clouds
3:55 PM 64.4 °F 46.4 °F 52% 30.02 in 10.0 mi SE 6.9 mph - N/A   Mostly Cloudy
4:15 PM 64.4 °F 46.4 °F 52% 30.02 in 10.0 mi SE 3.5 mph - N/A   Overcast
4:35 PM 64.4 °F 46.4 °F 52% 30.03 in 10.0 mi SE 3.5 mph - N/A   Overcast
4:55 PM 64.4 °F 46.4 °F 52% 30.03 in 10.0 mi SE 5.8 mph - N/A   Overcast
5:15 PM 62.6 °F 44.6 °F 52% 30.03 in 10.0 mi SE 5.8 mph - N/A   Overcast
5:35 PM 62.6 °F 44.6 °F 52% 30.04 in 10.0 mi SE 4.6 mph - N/A   Overcast
5:55 PM 62.6 °F 44.6 °F 52% 30.04 in 10.0 mi SE 3.5 mph - N/A   Overcast
6:15 PM 62.6 °F 44.6 °F 52% 30.04 in 10.0 mi SE 3.5 mph - N/A   Overcast
6:35 PM 60.8 °F 44.6 °F 55% 30.04 in 10.0 mi SE 4.6 mph - N/A   Overcast
6:55 PM 60.8 °F 44.6 °F 55% 30.04 in 10.0 mi SE 8.1 mph - N/A   Scattered Clouds
7:15 PM 60.8 °F 44.6 °F 55% 30.04 in 10.0 mi SE 8.1 mph - N/A   Clear
7:35 PM 60.8 °F 42.8 °F 52% 30.04 in 10.0 mi SE 8.1 mph 16.1 mph N/A   Scattered Clouds
7:55 PM 59.0 °F 42.8 °F 55% 30.04 in 10.0 mi SE 8.1 mph - N/A   Scattered Clouds
8:35 PM 59.0 °F 41.0 °F 51% 30.04 in 10.0 mi SE 11.5 mph 19.6 mph N/A   Clear
8:55 PM 59.0 °F 41.0 °F 51% 30.04 in 10.0 mi SE 9.2 mph 16.1 mph N/A   Clear
9:15 PM 57.2 °F 41.0 °F 55% 30.04 in 10.0 mi SE 8.1 mph 16.1 mph N/A   Clear
9:35 PM 57.2 °F 41.0 °F 55% 30.04 in 10.0 mi SE 8.1 mph - N/A   Mostly Cloudy
9:55 PM 57.2 °F 41.0 °F 55% 30.04 in 10.0 mi SSE 8.1 mph - N/A   Overcast
10:15 PM 57.2 °F 41.0 °F 55% 30.04 in 10.0 mi SSE 10.4 mph 16.1 mph N/A   Overcast
10:35 PM 55.4 °F 39.2 °F 54% 30.04 in 10.0 mi SE 10.4 mph - N/A   Overcast
10:55 PM 55.4 °F 39.2 °F 54% 30.04 in 10.0 mi SSE 6.9 mph - N/A   Overcast
11:15 PM 55.4 °F 39.2 °F 54% 30.04 in 10.0 mi SE 8.1 mph - N/A   Overcast
11:35 PM 55.4 °F 37.4 °F 51% 30.04 in 10.0 mi SE 9.2 mph 16.1 mph N/A   Overcast
11:55 PM 55.4 °F 37.4 °F 51% 30.04 in 10.0 mi SSE 9.2 mph 16.1 mph N/A   Overcast